Location: Gleizolles
(44.4833°N, 6.7667°E)
Time: 16:47:08
(UTC+00:00)

Tiros 1 - Pass Details

Date: 03 July 2024
Orbit: 624 x 656 km, 48.4° (Epoch: 13 July)

Event Time Altitude Azimuth Distance (km) Brightness Sun altitude
Rises 18:57:15 0° 224° (SW) 2,901 10.7 2.7°
Reaches altitude 10° 18:59:39 10° 218° (SW) 1,994 9.8 2.4°
Maximum altitude 19:04:00 45° 146° (SSE) 857 7.5 1.7°
Drops below altitude 10° 19:08:22 10° 74° (ENE) 1,996 9.3 1.0°
Sets 19:10:45 0° 69° (ENE) 2,905 10.1 0.7°
